Location: Petruro
(41.0333°N, 14.7833°E)
Time: 15:16:54
(UTC+00:00)

Cosmos 1782 - Pass Details

Date: 20 June 2021
Orbit: 537 x 550 km, 82.5° (Epoch: 30 July)

Event Time Altitude Azimuth Distance (km) Brightness Sun altitude
Rises 02:11:47 0° 343° (NNW) 2,717 6.8 -12.0°
Reaches altitude 10° 02:14:05 10° 334° (NNW) 1,822 5.7 -11.7°
Maximum altitude 02:17:44 35° 268° (W) 904 3.5 -11.2°
Enters shadow 02:20:39 14° 208° (SSW) 1,557 4.5 -10.8°
